Skip Navigation Links
NOAA logo - Click to go to the NOAA homepage
NOAA's National Weather Service
Alaska Aviation Weather Unit
  NWS logo - Click to go to the NWS homepage
Left Navbar Graphic     17 AKDT = 01 GMT

   
NOAA is celebrating 200 years of science, service, and stewardship. Visit the NOAA 200th celebration Web site to learn more.
USA.gov is the U.S. Government's official Web portal to all Federal, state and local government Web resources and services.
Facebook
NWS on Facebook

Important Change Regarding the AAWU Web Presence

 

Over the last several months, the AAWU has been working to navigate its webpages to a nationally supported server. Security, as well as other needs, have necessitated the change.  We have been given an extension for the site changeover while we diligently work at addressing feedback received. As of July 14, 2017, aawu.arh.noaa.gov will be discontinued. The new AAWU web address is weather.gov/aawu. It is now live and will run in-parallel with the old site until it is discontinued on July 14, 2017. Please continue to send any feedback or questions regarding the new webpages to nws.ar.aawu.webauthors@noaa.gov.  Thank you for your patience during this time of transition.
AAWU Home :: Display TAF Add Bookmark
SPECI PAZK 171928Z AUTO 01008KT 10SM OVC013 M07/M09 A2931 RMK AO2
     SNB11E20 P0000 FZRANO=

METAR PAZK 171956Z AUTO 02006KT 10SM OVC013 M07/M09 A2931 RMK AO2
     SNB11E20 SLP985 P0000 T10721089 FZRANO=

METAR PAZK 172156Z AUTO VRB03KT 10SM OVC011 M06/M08 A2929 RMK AO2 SLP977
     T10561083 FZRANO=

METAR PAZK 172256Z AUTO 00000KT 10SM OVC011 M06/M08 A2928 RMK AO2 SLP972
     T10561083 FZRANO=

METAR PAZK 172356Z AUTO 00000KT 10SM OVC011 M06/M08 A2926 RMK AO2 SLP966
     60000 T10561078 11056 21078 58012 FZRANO=

METAR PAZK 180056Z AUTO 00000KT 9SM -SN OVC011 M06/M08 A2925 RMK AO2
     SNB20 SLP962 P0000 T10611078 FZRANO=

SPECI PAZK 180103Z AUTO 02004KT 9SM -SN OVC009 M06/M08 A2925 RMK AO2
     P0000 FZRANO=


NOAA's National Weather Service
Alaska Aviation Weather Unit
6930 Sand Lake Road
Anchorage, AK 99502-1845
Disclaimer
Credits
Glossary
Privacy Policy
About Us
Career Opportunities
Contact AAWU Internet Services Site last modified: April, 17th 2012